This is the latest recevied weather packets stored in our database for station/object KK7RJD. If no packets are shown the sender has not sent any weather packets the latest 10 day(s).
| Time | Temp. | Humidity | Pressure | Rain* | Wind** | Luminosity | Snow |
|---|---|---|---|---|---|---|---|
| 1778154584 | 7.78° C | 79% | 1012.6 hPa | 1.27 mm | - | 0 W/m² | - |
| 1778153977 | 7.78° C | 75% | 1013.2 hPa | 0 mm | - | 0 W/m² | - |
| 1778153674 | 8.33° C | 73% | 1013.4 hPa | 0 mm | - | 0 W/m² | - |
| 1778153372 | 8.89° C | 68% | 1013.4 hPa | 0 mm | - | 0 W/m² | - |
| 1778153069 | 8.89° C | 65% | 1013.3 hPa | 0 mm | - | 0 W/m² | - |
| 1778152766 | 8.33° C | 66% | 1012.8 hPa | 0 mm | - | 0 W/m² | - |
| 1778152463 | 8.33° C | 65% | 1012.9 hPa | 0 mm | - | 0 W/m² | - |
| 1778152160 | 8.33° C | 65% | 1013.2 hPa | 0 mm | - | 0 W/m² | - |
| 1778151856 | 8.33° C | 65% | 1012.7 hPa | 0 mm | - | 0 W/m² | - |
| 1778151553 | 8.33° C | 64% | 1012.8 hPa | 0 mm | - | 0 W/m² | - |
| 1778151249 | 8.89° C | 60% | 1012.9 hPa | 0 mm | - | 0 W/m² | - |
| 1778150946 | 8.89° C | 58% | 1013 hPa | 0 mm | - | 0 W/m² | - |
| 1778150338 | 8.89° C | 55% | 1013.4 hPa | 0 mm | - | 0 W/m² | - |
| 1778150035 | 8.89° C | 55% | 1013.4 hPa | 0 mm | - | 0 W/m² | - |
| 1778149731 | 8.89° C | 56% | 1013.5 hPa | 0 mm | - | 0 W/m² | - |
| 1778149428 | 8.89° C | 57% | 1013.4 hPa | 0 mm | - | 0 W/m² | - |
| 1778149124 | 9.44° C | 58% | 1013.4 hPa | 0 mm | - | 0 W/m² | - |
| 1778148824 | 9.44° C | 56% | 1013.5 hPa | 0 mm | - | 0 W/m² | - |
| 1778148522 | 9.44° C | 55% | 1013.4 hPa | 0 mm | - | 0 W/m² | - |
| 1778148220 | 9.44° C | 51% | 1013.5 hPa | 0 mm | - | 0 W/m² | - |
| 1778147918 | 9.44° C | 54% | 1013.5 hPa | 0 mm | - | 0 W/m² | - |
| 1778147614 | 9.44° C | 53% | 1013.7 hPa | 0 mm | - | 0 W/m² | - |
| 1778147311 | 9.44° C | 52% | 1013.6 hPa | 0 mm | - | 0 W/m² | - |
| 1778146705 | 9.44° C | 52% | 1013.7 hPa | 0 mm | - | 0 W/m² | - |
| 1778146101 | 9.44° C | 56% | 1013.8 hPa | 0 mm | - | 0 W/m² | - |
* Rain latest hour (hover to see other rain measurements)
** Current wind speed in m/s (hover to see current wind gust speed)